LGX33SB LIRF-HAAB

Flight info

Callsign LGX33SB
Flight time N/A
Altitude 35000
Route ROTUN DCT BEROL DCT NERAR DCT RCA DCT ABAKO DCT VENIM DCT INBIN DCT BONAR M620 BNA R2 ATMUL N314 TIKAT
Aircraft A346/H-SDE2E3FGHIJ3J4J5M1RWXY/LB1D1

Departure

Time 2026-02-17 05:45
Airport Rome–Fiumicino Leonardo da Vinci International Airport (LIRF)

Arrival

Time N/A
Airport Addis Ababa Bole International Airport (HAAB)
Time Latitude Longitude Altitude Speed Heading
2026-02-17 05:19 41.79648 12.24020 17 ft 0 kts 128°
2026-02-17 05:34 41.79649 12.24019 17 ft 0 kts 128°
2026-02-17 05:34 41.79650 12.24017 17 ft 2 kts 128°
2026-02-17 05:34 41.79659 12.24001 17 ft 2 kts 128°
2026-02-17 05:35 41.79678 12.23969 16 ft 2 kts 128°
2026-02-17 05:35 41.79689 12.23956 17 ft 2 kts 158°
2026-02-17 05:35 41.79704 12.23953 16 ft 2 kts 187°
2026-02-17 05:35 41.79717 12.23958 17 ft 2 kts 213°
2026-02-17 05:36 41.79728 12.23972 17 ft 2 kts 240°
2026-02-17 05:36 41.79731 12.23980 16 ft 1 kts 249°
2026-02-17 05:36 41.79731 12.23983 16 ft 0 kts 249°
2026-02-17 05:40 41.79727 12.23966 16 ft 3 kts 249°
2026-02-17 05:40 41.79713 12.23918 16 ft 7 kts 249°
2026-02-17 05:40 41.79696 12.23861 16 ft 5 kts 248°
2026-02-17 05:41 41.79670 12.23803 16 ft 8 kts 224°
2026-02-17 05:41 41.79602 12.23786 16 ft 11 kts 170°
2026-02-17 05:41 41.79514 12.23819 16 ft 14 kts 163°
2026-02-17 05:41 41.79412 12.23860 16 ft 16 kts 162°
2026-02-17 05:42 41.79298 12.23910 16 ft 17 kts 162°
2026-02-17 05:42 41.79176 12.23962 16 ft 19 kts 162°
2026-02-17 05:42 41.79046 12.24015 16 ft 20 kts 163°
2026-02-17 05:43 41.78772 12.24131 20 ft 21 kts 163°
2026-02-17 05:43 41.78628 12.24190 20 ft 22 kts 162°
2026-02-17 05:43 41.78476 12.24253 20 ft 23 kts 162°
2026-02-17 05:43 41.78321 12.24318 20 ft 22 kts 163°
2026-02-17 05:44 41.78213 12.24260 20 ft 17 kts 246°
2026-02-17 05:44 41.78224 12.24099 20 ft 18 kts 296°
2026-02-17 05:44 41.78319 12.23991 20 ft 19 kts 340°
2026-02-17 05:44 41.78482 12.23920 20 ft 42 kts 342°
2026-02-17 05:45 41.79047 12.23685 19 ft 124 kts 342°
2026-02-17 05:45 41.80107 12.23244 79 ft 184 kts 341°
2026-02-17 05:45 41.81346 12.22744 855 ft 188 kts 341°
2026-02-17 05:45 41.82458 12.22002 1940 ft 181 kts 319°
2026-02-17 05:46 41.83098 12.20619 2668 ft 188 kts 290°
2026-02-17 05:46 41.83016 12.18768 3124 ft 217 kts 254°
2026-02-17 05:46 41.81959 12.17251 3738 ft 242 kts 213°
2026-02-17 05:47 41.78586 12.16249 5119 ft 255 kts 191°
2026-02-17 05:47 41.75014 12.15612 6361 ft 269 kts 184°
2026-02-17 05:47 41.73084 12.15805 6735 ft 289 kts 172°
2026-02-17 05:48 41.71025 12.16254 7151 ft 308 kts 171°
2026-02-17 05:48 41.68872 12.16749 7784 ft 319 kts 171°
2026-02-17 05:48 41.66704 12.17208 8601 ft 322 kts 173°
2026-02-17 05:48 41.64489 12.17639 9437 ft 324 kts 173°
2026-02-17 05:49 41.62257 12.18047 10152 ft 331 kts 174°
2026-02-17 05:49 41.59920 12.18456 10590 ft 347 kts 174°
2026-02-17 05:49 41.57442 12.18882 10963 ft 365 kts 174°
2026-02-17 05:49 41.54891 12.19318 11311 ft 383 kts 174°
2026-02-17 05:50 41.52162 12.19780 11663 ft 402 kts 174°
2026-02-17 05:50 41.49330 12.20262 12049 ft 417 kts 173°
2026-02-17 05:50 41.46452 12.20754 12712 ft 424 kts 174°
2026-02-17 05:51 41.40533 12.21767 14222 ft 433 kts 174°
2026-02-17 05:51 41.37573 12.22271 14970 ft 436 kts 174°
2026-02-17 05:51 41.34522 12.22789 15659 ft 441 kts 174°
2026-02-17 05:51 41.31484 12.23308 16300 ft 446 kts 174°
2026-02-17 05:52 41.28400 12.23827 16961 ft 450 kts 175°
2026-02-17 05:52 41.25288 12.24358 17643 ft 454 kts 176°
2026-02-17 05:52 41.22152 12.24889 18311 ft 457 kts 176°
2026-02-17 05:52 41.18988 12.25419 18947 ft 461 kts 176°
2026-02-17 05:53 41.15789 12.25956 19481 ft 467 kts 178°
2026-02-17 05:53 41.12544 12.26497 19944 ft 474 kts 177°
2026-02-17 05:53 41.09279 12.27047 20380 ft 480 kts 178°
2026-02-17 05:53 41.05929 12.27611 20778 ft 487 kts 179°
2026-02-17 05:54 41.02566 12.28172 21118 ft 496 kts 179°
2026-02-17 05:54 40.99131 12.28750 21541 ft 503 kts 179°
2026-02-17 05:54 40.95631 12.29329 21942 ft 509 kts 180°
2026-02-17 05:55 40.88570 12.31203 22920 ft 533 kts 163°
2026-02-17 05:55 40.85296 12.33450 23298 ft 542 kts 149°
2026-02-17 05:55 40.82230 12.36505 23546 ft 554 kts 142°
2026-02-17 05:55 40.79260 12.39742 23737 ft 563 kts 140°
2026-02-17 05:56 40.76240 12.43082 24144 ft 570 kts 141°
2026-02-17 05:56 40.73181 12.46426 24634 ft 572 kts 142°
2026-02-17 05:56 40.70115 12.49712 25012 ft 576 kts 142°
2026-02-17 05:56 40.66957 12.53045 25414 ft 581 kts 142°
2026-02-17 05:57 40.63819 12.56333 25818 ft 584 kts 142°
2026-02-17 05:57 40.60633 12.59673 26258 ft 587 kts 143°
2026-02-17 05:57 40.57409 12.63040 26612 ft 592 kts 143°
2026-02-17 05:57 40.54167 12.66407 26897 ft 597 kts 143°
2026-02-17 05:58 40.50905 12.69805 27221 ft 602 kts 143°
2026-02-17 05:58 40.47625 12.73226 27627 ft 605 kts 144°
2026-02-17 05:58 40.44327 12.76647 28034 ft 607 kts 143°
2026-02-17 05:59 40.37779 12.83445 29085 ft 603 kts 146°
2026-02-17 05:59 40.34473 12.86870 29557 ft 605 kts 145°
2026-02-17 05:59 40.31175 12.90273 30067 ft 603 kts 146°
2026-02-17 05:59 40.27889 12.93668 30622 ft 601 kts 146°
2026-02-17 06:00 40.24607 12.97049 31076 ft 601 kts 144°
2026-02-17 06:00 40.21358 13.00524 31505 ft 604 kts 142°
2026-02-17 06:00 40.18285 13.04285 31947 ft 605 kts 137°
2026-02-17 06:00 40.15429 13.08221 32414 ft 604 kts 134°
2026-02-17 06:01 40.12601 13.12255 32910 ft 603 kts 132°
2026-02-17 06:01 40.09779 13.16322 33288 ft 604 kts 131°
2026-02-17 06:01 40.06939 13.20389 33601 ft 607 kts 133°
2026-02-17 06:01 40.04114 13.24428 33905 ft 609 kts 133°
2026-02-17 06:02 40.01238 13.28504 34262 ft 610 kts 134°
2026-02-17 06:02 39.98394 13.32537 34558 ft 608 kts 134°
2026-02-17 06:02 39.95515 13.36585 34651 ft 609 kts 134°
2026-02-17 06:03 39.86842 13.48714 34664 ft 607 kts 134°
2026-02-17 06:03 39.81108 13.56733 34629 ft 609 kts 134°
2026-02-17 06:04 39.75332 13.64785 34624 ft 611 kts 135°
2026-02-17 06:04 39.69556 13.72819 34631 ft 612 kts 136°
2026-02-17 06:05 39.63750 13.80866 34588 ft 614 kts 136°
2026-02-17 06:05 39.57893 13.88964 34616 ft 612 kts 135°
2026-02-17 06:06 39.52111 13.96949 34599 ft 612 kts 136°
2026-02-17 06:07 39.49175 14.00983 34629 ft 611 kts 135°